timestamp,wind_dir_avg,wind_spd_avg,wind_spd_max_dir,wind_spd_gust,battery_voltage,lat,long
2020-12-15 00:04:01+00:00,92.0,3.3,108.0,5.37,12.09,47.59359,-54.27349
2020-12-15 00:14:01+00:00,96.0,3.13,105.0,5.4,12.09,47.59359,-54.27349
2020-12-15 00:24:01+00:00,104.0,2.4,98.0,3.37,12.09,47.59359,-54.27349
2020-12-15 00:34:01+00:00,101.0,1.73,96.0,2.61,12.09,47.59359,-54.27349
2020-12-15 00:44:01+00:00,115.0,1.84,124.0,2.72,12.09,47.59359,-54.27349
2020-12-15 00:54:01+00:00,86.0,2.03,81.0,3.09,12.09,47.59359,-54.27349
2020-12-15 01:04:01+00:00,80.0,2.98,74.0,5.06,12.09,47.59359,-54.27349
2020-12-15 01:14:01+00:00,105.0,2.78,121.0,4.77,12.09,47.59359,-54.27349
2020-12-15 01:24:01+00:00,100.0,2.42,116.0,4.72,12.09,47.59359,-54.27349
2020-12-15 01:34:01+00:00,76.0,2.01,61.0,3.03,12.09,47.59359,-54.27349
2020-12-15 01:44:01+00:00,86.0,2.53,75.0,3.83,12.09,47.59359,-54.27349
2020-12-15 01:54:01+00:00,102.0,2.9,105.0,5.06,12.09,47.59359,-54.27349
2020-12-15 02:04:01+00:00,99.0,2.95,98.0,4.57,12.09,47.59359,-54.27349
2020-12-15 02:14:01+00:00,90.0,2.83,102.0,5.52,12.01,47.59359,-54.27349
2020-12-15 02:24:01+00:00,95.0,3.3,88.0,4.72,12.01,47.59359,-54.27349
2020-12-15 02:34:01+00:00,83.0,2.86,86.0,5.19,12.01,47.59359,-54.27349
2020-12-15 02:44:01+00:00,87.0,3.19,87.0,5.18,12.01,47.59359,-54.27349
2020-12-15 02:54:01+00:00,82.0,3.3,111.0,4.38,12.01,47.59359,-54.27349
2020-12-15 03:04:01+00:00,92.0,3.35,102.0,6.05,12.01,47.59359,-54.27349
2020-12-15 03:14:01+00:00,88.0,3.59,74.0,5.63,12.17,47.59359,-54.27349
2020-12-15 03:24:01+00:00,95.0,4.31,71.0,6.72,12.17,47.59359,-54.27349
2020-12-15 03:34:01+00:00,119.0,6.54,124.0,8.34,12.17,47.59359,-54.27349
2020-12-15 03:44:01+00:00,120.0,5.63,126.0,6.92,12.17,47.59359,-54.27349
2020-12-15 03:54:01+00:00,122.0,7.97,122.0,8.62,12.17,47.59359,-54.27349
2020-12-15 04:04:01+00:00,125.0,5.71,123.0,6.97,12.17,47.59359,-54.27349
2020-12-15 04:14:01+00:00,119.0,3.61,125.0,5.33,12.09,47.59359,-54.27349
2020-12-15 04:24:01+00:00,87.0,2.49,64.0,4.26,12.09,47.59359,-54.27349
2020-12-15 04:34:01+00:00,98.0,1.89,89.0,3.75,12.09,47.59359,-54.27349
2020-12-15 04:44:01+00:00,68.0,1.38,61.0,2.86,12.09,47.59359,-54.27349
2020-12-15 04:54:01+00:00,101.0,1.96,103.0,2.99,12.09,47.59359,-54.27349
2020-12-15 05:04:01+00:00,120.0,3.08,124.0,5.92,12.09,47.59359,-54.27349
2020-12-15 05:14:01+00:00,119.0,4.92,127.0,6.37,12.17,47.59359,-54.27349
2020-12-15 05:24:01+00:00,126.0,7.23,125.0,9.51,12.17,47.59359,-54.27349
2020-12-15 05:34:01+00:00,132.0,8.02,134.0,9.38,12.17,47.59359,-54.27349
2020-12-15 05:44:01+00:00,130.0,8.26,138.0,9.6,12.17,47.59359,-54.27349
2020-12-15 05:54:01+00:00,129.0,8.14,129.0,9.96,12.17,47.59359,-54.27349
2020-12-15 06:04:01+00:00,131.0,7.85,130.0,9.44,12.17,47.59359,-54.27349
2020-12-15 06:14:01+00:00,127.0,8.44,125.0,9.61,12.09,47.59359,-54.27349
2020-12-15 06:24:01+00:00,120.0,7.21,127.0,8.32,12.09,47.59359,-54.27349
2020-12-15 06:34:01+00:00,121.0,7.45,125.0,9.32,12.09,47.59359,-54.27349
2020-12-15 06:44:01+00:00,121.0,6.97,123.0,7.73,12.09,47.59359,-54.27349
2020-12-15 06:54:01+00:00,121.0,7.49,127.0,8.68,12.09,47.59359,-54.27349
2020-12-15 07:04:01+00:00,127.0,7.01,125.0,8.42,12.09,47.59359,-54.27349
2020-12-15 07:14:01+00:00,125.0,7.23,126.0,8.33,12.17,47.59359,-54.27349
2020-12-15 07:24:01+00:00,128.0,7.74,131.0,8.95,12.17,47.59359,-54.27349
2020-12-15 07:34:01+00:00,137.0,6.54,138.0,7.52,12.17,47.59359,-54.27349
2020-12-15 07:44:01+00:00,138.0,7.05,144.0,8.26,12.17,47.59359,-54.27349
2020-12-15 07:54:01+00:00,129.0,7.41,135.0,8.92,12.17,47.59359,-54.27349
2020-12-15 08:04:01+00:00,134.0,7.58,139.0,8.95,12.17,47.59359,-54.27349
2020-12-15 08:14:01+00:00,138.0,7.42,141.0,9.89,12.33,47.59359,-54.27349
2020-12-15 08:24:01+00:00,124.0,8.09,129.0,10.34,12.33,47.59359,-54.27349
2020-12-15 08:34:01+00:00,124.0,7.99,126.0,9.65,12.33,47.59359,-54.27349
2020-12-15 08:44:01+00:00,115.0,5.67,130.0,8.87,12.33,47.59359,-54.27349
2020-12-15 08:54:01+00:00,122.0,5.07,124.0,8.42,12.33,47.59359,-54.27349
2020-12-15 09:04:01+00:00,122.0,8.72,127.0,10.39,12.33,47.59359,-54.27349
2020-12-15 09:14:01+00:00,116.0,7.33,127.0,9.02,12.25,47.59359,-54.27349
2020-12-15 09:24:01+00:00,120.0,7.29,125.0,9.27,12.25,47.59359,-54.27349
2020-12-15 09:34:01+00:00,120.0,6.22,122.0,7.61,12.25,47.59359,-54.27349
2020-12-15 09:44:01+00:00,124.0,7.45,126.0,8.81,12.25,47.59359,-54.27349
2020-12-15 09:54:01+00:00,121.0,7.5,124.0,8.48,12.25,47.59359,-54.27349
2020-12-15 10:04:01+00:00,124.0,6.49,124.0,7.34,12.25,47.59359,-54.27349
2020-12-15 10:14:01+00:00,123.0,7.75,121.0,8.85,12.25,47.59359,-54.27349
2020-12-15 10:24:01+00:00,120.0,5.54,120.0,7.16,12.25,47.59359,-54.27349
2020-12-15 10:34:01+00:00,98.0,3.13,54.0,5.99,12.25,47.59359,-54.27349
2020-12-15 10:44:01+00:00,101.0,3.2,138.0,5.19,12.25,47.59359,-54.27349
2020-12-15 10:54:01+00:00,88.0,3.12,120.0,5.07,12.25,47.59359,-54.27349
2020-12-15 11:04:01+00:00,81.0,3.7,64.0,5.34,12.25,47.59359,-54.27349
2020-12-15 11:14:01+00:00,86.0,3.58,62.0,5.32,12.17,47.59359,-54.27349
2020-12-15 11:24:01+00:00,71.0,3.79,47.0,5.03,12.17,47.59359,-54.27349
2020-12-15 11:34:01+00:00,59.0,3.19,76.0,5.36,12.17,47.59359,-54.27349
2020-12-15 11:44:01+00:00,70.0,6.11,65.0,7.4,12.17,47.59359,-54.27349
2020-12-15 11:54:01+00:00,65.0,6.91,62.0,8.45,12.17,47.59359,-54.27349
2020-12-15 12:04:01+00:00,48.0,6.57,48.0,8.35,12.17,47.59359,-54.27349
2020-12-15 12:14:01+00:00,54.0,8.21,51.0,9.31,12.17,47.59359,-54.27349
2020-12-15 12:24:01+00:00,58.0,9.05,57.0,9.74,12.17,47.59359,-54.27349
2020-12-15 12:34:01+00:00,60.0,7.79,53.0,8.95,12.17,47.59359,-54.27349
2020-12-15 12:44:01+00:00,64.0,7.53,60.0,8.85,12.17,47.59359,-54.27349
2020-12-15 12:54:01+00:00,63.0,8.5,60.0,10.08,12.17,47.59359,-54.27349
2020-12-15 13:04:01+00:00,56.0,8.79,55.0,9.59,12.17,47.59359,-54.27349
2020-12-15 13:14:01+00:00,42.0,7.38,53.0,10.27,12.17,47.59359,-54.27349
2020-12-15 13:24:01+00:00,51.0,9.81,48.0,10.46,12.17,47.59359,-54.27349
2020-12-15 13:34:01+00:00,45.0,9.37,45.0,9.96,12.17,47.59359,-54.27349
2020-12-15 13:44:01+00:00,35.0,9.71,37.0,10.57,12.17,47.59359,-54.27349
2020-12-15 13:54:01+00:00,22.0,9.08,18.0,10.69,12.17,47.59359,-54.27349
2020-12-15 14:04:01+00:00,358.0,9.71,358.0,10.54,12.17,47.59359,-54.27349
2020-12-15 14:14:01+00:00,354.0,9.62,353.0,10.62,12.17,47.59359,-54.27349
2020-12-15 14:24:01+00:00,346.0,10.13,349.0,11.31,12.17,47.59359,-54.27349
2020-12-15 14:34:01+00:00,337.0,9.89,337.0,11.45,12.17,47.59359,-54.27349
2020-12-15 14:44:01+00:00,340.0,9.54,347.0,11.45,12.17,47.59359,-54.27349
2020-12-15 14:54:01+00:00,352.0,10.77,349.0,11.85,12.17,47.59359,-54.27349
2020-12-15 15:04:01+00:00,352.0,9.57,353.0,10.67,12.17,47.59359,-54.27349
2020-12-15 15:14:01+00:00,351.0,8.17,356.0,9.13,12.41,47.59359,-54.27349
2020-12-15 15:24:01+00:00,341.0,8.82,339.0,10.11,12.41,47.59359,-54.27349
2020-12-15 15:34:01+00:00,311.0,7.78,318.0,8.78,12.41,47.59359,-54.27349
2020-12-15 15:44:01+00:00,323.0,7.3,317.0,8.51,12.41,47.59359,-54.27349
2020-12-15 15:54:01+00:00,317.0,6.51,326.0,7.81,12.41,47.59359,-54.27349
2020-12-15 16:04:01+00:00,315.0,6.7,317.0,7.87,12.41,47.59359,-54.27349
2020-12-15 16:14:01+00:00,285.0,7.89,283.0,9.14,12.33,47.59359,-54.27349
2020-12-15 16:24:01+00:00,277.0,8.2,276.0,9.87,12.33,47.59359,-54.27349
2020-12-15 16:34:01+00:00,272.0,7.72,275.0,8.63,12.33,47.59359,-54.27349
2020-12-15 16:44:01+00:00,269.0,7.58,266.0,8.22,12.33,47.59359,-54.27349
2020-12-15 16:54:01+00:00,267.0,8.3,271.0,9.19,12.33,47.59359,-54.27349
2020-12-15 17:04:01+00:00,272.0,8.75,278.0,9.88,12.33,47.59359,-54.27349
2020-12-15 17:14:01+00:00,270.0,9.53,268.0,11.32,12.25,47.59359,-54.27349
2020-12-15 17:24:01+00:00,267.0,9.35,263.0,10.61,12.25,47.59359,-54.27349
2020-12-15 17:34:01+00:00,268.0,10.79,270.0,12.61,12.25,47.59359,-54.27349
2020-12-15 17:44:01+00:00,266.0,10.36,268.0,12.2,12.25,47.59359,-54.27349
2020-12-15 17:54:01+00:00,263.0,11.96,261.0,13.93,12.25,47.59359,-54.27349
2020-12-15 18:04:01+00:00,274.0,11.71,275.0,17.44,12.25,47.59359,-54.27349
2020-12-15 18:14:01+00:00,281.0,11.91,276.0,14.94,12.25,47.59359,-54.27349
2020-12-15 18:24:01+00:00,277.0,12.01,269.0,13.32,12.25,47.59359,-54.27349
2020-12-15 18:34:01+00:00,275.0,14.2,279.0,16.72,12.25,47.59359,-54.27349
2020-12-15 18:44:01+00:00,275.0,14.39,283.0,17.53,12.25,47.59359,-54.27349
2020-12-15 18:54:01+00:00,279.0,13.98,276.0,17.29,12.25,47.59359,-54.27349
2020-12-15 19:04:01+00:00,279.0,15.0,281.0,19.25,12.25,47.59359,-54.27349
2020-12-15 19:14:01+00:00,284.0,16.12,293.0,19.97,13.84,47.59359,-54.27349
2020-12-15 19:24:01+00:00,281.0,15.02,283.0,17.42,13.84,47.59359,-54.27349
2020-12-15 19:34:01+00:00,277.0,16.45,276.0,19.18,13.84,47.59359,-54.27349
2020-12-15 19:44:01+00:00,277.0,16.04,278.0,19.16,13.84,47.59359,-54.27349
2020-12-15 19:54:01+00:00,273.0,15.46,277.0,17.98,13.84,47.59359,-54.27349
2020-12-15 20:04:01+00:00,273.0,15.25,278.0,18.13,13.84,47.59359,-54.27349
2020-12-15 21:14:01+00:00,276.0,16.07,277.0,18.69,12.57,47.59359,-54.27349
2020-12-15 21:24:01+00:00,275.0,15.66,279.0,19.18,12.57,47.59359,-54.27349
2020-12-15 21:34:01+00:00,283.0,16.66,288.0,20.18,12.57,47.59359,-54.27349
2020-12-15 21:44:01+00:00,281.0,17.06,282.0,19.38,12.57,47.59359,-54.27349
2020-12-15 21:54:01+00:00,276.0,17.41,280.0,19.32,12.57,47.59359,-54.27349
2020-12-15 22:04:01+00:00,279.0,19.55,277.0,24.05,12.57,47.59359,-54.27349
2020-12-15 22:14:01+00:00,279.0,18.92,283.0,24.18,12.57,47.59359,-54.27349
2020-12-15 22:24:01+00:00,272.0,16.1,277.0,18.81,12.57,47.59359,-54.27349
2020-12-15 22:34:01+00:00,275.0,16.49,280.0,19.34,12.57,47.59359,-54.27349
2020-12-15 22:44:01+00:00,270.0,16.91,269.0,20.08,12.57,47.59359,-54.27349
2020-12-15 22:54:01+00:00,272.0,17.59,271.0,20.18,12.57,47.59359,-54.27349
2020-12-15 23:04:01+00:00,283.0,19.38,283.0,25.14,12.57,47.59359,-54.27349
2020-12-15 23:14:01+00:00,273.0,16.12,285.0,19.06,12.33,47.59359,-54.27349
2020-12-15 23:24:01+00:00,272.0,14.47,275.0,18.4,12.33,47.59359,-54.27349
2020-12-15 23:34:01+00:00,269.0,17.44,267.0,22.28,12.33,47.59359,-54.27349
2020-12-15 23:44:01+00:00,273.0,17.75,272.0,22.81,12.33,47.59359,-54.27349
2020-12-15 23:54:01+00:00,276.0,17.24,282.0,19.31,12.33,47.59359,-54.27349
